Date String (YYYY-MM-DD hh:mm:ss) UTC,Instrument flags,absolute air pressure of the measurement (hPa),sample flow rate (lpm),inlet stack bypass flow (lpm),air temperature of the measurement (°C),ambient temperature measured by the external sensor (°C),aerosol sample conditioner tube jacket temperature (°C),OPC LED temperature (°C),internal box temperature (°C),relative humidity of the measurement (%),span deviation,mass concentration of particles derived from Lorenz-Mie calculation of OPC scattering (μg/m³),mass concentration of particles derived from Lorenz-Mie calculation of OPC scattering (μg/m³),mass concentration of particles derived from Lorenz-Mie calculation of OPC scattering (μg/m³)
DateTimeUTC,F1_M11,P_M11,Q1_M11,Q2_M11,T1_M11,T2_M11,T3_M11,T4_M11,T5_M11,U1_M11,ZSPAN_M11,X0_M11,X2_M11,X1_M11
2023-09-24 08:00:00,SystemResetWarning,0831.6,5.01,000.00,028.9,027.4,000.0,037.3,030.4,11.1,0000.0,0009.13,0003.56,0002.74
2023-09-24 08:01:00,SystemResetWarning,0831.6,5.00,000.00,028.9,027.4,000.0,037.3,030.4,11.0,0000.0,0010.24,0003.58,0002.74
2023-09-24 08:02:00,SystemResetWarning,0831.5,4.98,000.00,028.9,027.4,000.0,037.3,030.4,11.1,0000.0,0010.22,0003.54,0002.73
2023-09-24 08:03:00,SystemResetWarning,0831.5,5.00,000.00,028.9,027.4,000.0,037.3,030.4,11.3,0000.0,0009.87,0003.49,0002.71
2023-09-24 08:04:00,SystemResetWarning,0831.5,5.01,000.00,028.9,027.4,000.0,037.3,030.4,11.1,0000.0,0009.03,0003.47,0002.73
2023-09-24 08:05:00,SystemResetWarning,0831.5,5.01,000.00,028.9,027.4,000.0,037.3,030.4,11.2,0000.0,0009.09,0003.49,0002.74
2023-09-24 08:06:00,SystemResetWarning,0831.6,4.99,000.00,028.9,027.4,000.0,037.3,030.4,11.2,0000.0,0009.39,0003.48,0002.73
2023-09-24 08:07:00,SystemResetWarning,0831.5,4.99,000.00,028.9,027.4,000.0,037.3,030.4,11.1,0000.0,0010.99,0003.45,0002.71
2023-09-24 08:08:00,SystemResetWarning,0831.5,5.00,000.00,028.9,027.4,000.0,037.3,030.4,11.1,0000.0,0011.37,0003.44,0002.74
2023-09-24 08:09:00,SystemResetWarning,0831.5,5.00,000.00,028.9,027.4,000.0,037.3,030.4,11.2,0000.0,0011.41,0003.45,0002.74
2023-09-24 08:10:00,SystemResetWarning,0831.5,5.00,000.00,028.9,027.4,000.0,037.3,030.3,11.1,0000.0,0011.13,0003.45,0002.74
2023-09-24 08:11:00,SystemResetWarning,0831.5,5.00,000.00,028.9,027.4,000.0,037.3,030.3,10.9,0000.0,0011.31,0003.45,0002.76
2023-09-24 08:12:00,SystemResetWarning,0831.5,5.00,000.00,028.8,027.4,000.0,037.3,030.3,10.9,0000.0,0010.27,0003.47,0002.79
2023-09-24 08:13:00,SystemResetWarning,0831.5,5.01,000.00,028.9,027.4,000.0,037.3,030.3,10.8,0000.0,0010.50,0003.53,0002.82
2023-09-24 08:14:00,SystemResetWarning,0831.5,5.01,000.00,028.8,027.4,000.0,037.3,030.3,10.7,0000.0,0010.72,0003.53,0002.84
2023-09-24 08:15:00,SystemResetWarning,0831.5,5.00,000.00,028.8,027.4,000.0,037.3,030.3,10.7,0000.0,0010.79,0003.54,0002.84
2023-09-24 08:16:00,SystemResetWarning,0831.5,4.99,000.00,028.8,027.3,000.0,037.3,030.3,10.7,0000.0,0011.01,0003.56,0002.85
2023-09-24 08:17:00,SystemResetWarning,0831.5,4.99,000.00,028.8,027.3,000.0,037.3,030.3,10.8,0000.0,0011.24,0003.59,0002.86
2023-09-24 08:18:00,SystemResetWarning,0831.5,5.01,000.00,028.8,027.3,000.0,037.3,030.3,10.7,0000.0,0009.45,0003.58,0002.86
2023-09-24 08:19:00,SystemResetWarning,0831.5,5.01,000.00,028.8,027.3,000.0,037.3,030.3,10.7,0000.0,0009.44,0003.57,0002.84
2023-09-24 08:20:00,SystemResetWarning,0831.5,4.99,000.00,028.8,027.3,000.0,037.3,030.3,10.6,0000.0,0009.80,0003.59,0002.84
2023-09-24 08:21:00,SystemResetWarning,0831.5,4.99,000.00,028.8,027.3,000.0,037.3,030.3,10.7,0000.0,0010.60,0003.63,0002.85
2023-09-24 08:22:00,SystemResetWarning,0831.5,4.99,000.00,028.8,027.3,000.0,037.3,030.3,10.7,0000.0,0010.34,0003.65,0002.87
2023-09-24 08:23:00,SystemResetWarning,0831.5,5.00,000.00,028.8,027.3,000.0,037.3,030.2,10.7,0000.0,0010.15,0003.62,0002.86
2023-09-24 08:24:00,SystemResetWarning,0831.5,5.02,000.00,028.8,027.3,000.0,037.3,030.3,10.5,0000.0,0009.66,0003.58,0002.86
2023-09-24 08:25:00,SystemResetWarning,0831.5,5.00,000.00,028.8,027.3,000.0,037.3,030.3,10.4,0000.0,0009.54,0003.62,0002.86
2023-09-24 08:26:00,SystemResetWarning,0831.5,4.99,000.00,028.8,027.3,000.0,037.3,030.3,10.8,0000.0,0009.39,0003.66,0002.89
2023-09-24 08:27:00,SystemResetWarning,0831.5,4.99,000.00,028.8,027.3,000.0,037.3,030.3,10.8,0000.0,0009.37,0003.67,0002.90
2023-09-24 08:28:00,SystemResetWarning,0831.5,5.01,000.00,028.8,027.3,000.0,037.3,030.3,10.7,0000.0,0008.96,0003.65,0002.90
2023-09-24 08:29:00,SystemResetWarning,0831.5,5.01,000.00,028.8,027.3,000.0,037.3,030.3,10.5,0000.0,0009.01,0003.67,0002.91
2023-09-24 08:30:00,SystemResetWarning,0831.5,5.00,000.00,028.8,027.3,000.0,037.3,030.3,10.6,0000.0,0009.54,0003.70,0002.93
2023-09-24 08:31:00,SystemResetWarning,0831.5,4.99,000.00,028.8,027.3,000.0,037.3,030.3,10.6,0000.0,0009.38,0003.67,0002.95
2023-09-24 08:32:00,SystemResetWarning,0831.6,5.00,000.00,028.8,027.3,000.0,037.3,030.3,10.6,0000.0,0008.93,0003.66,0002.94
2023-09-24 08:33:00,SystemResetWarning,0831.5,4.99,000.00,028.8,027.3,000.0,037.3,030.3,10.6,0000.0,0009.39,0003.65,0002.92
2023-09-24 08:34:00,SystemResetWarning,0831.6,5.00,000.00,028.8,027.3,000.0,037.3,030.3,10.6,0000.0,0009.60,0003.64,0002.92
2023-09-24 08:35:00,SystemResetWarning,0831.5,4.99,000.00,028.8,027.3,000.0,037.3,030.3,10.8,0000.0,0009.81,0003.67,0002.92
2023-09-24 08:36:00,SystemResetWarning,0831.6,5.00,000.00,028.8,027.3,000.0,037.3,030.3,10.8,0000.0,0009.66,0003.63,0002.92
2023-09-24 08:37:00,SystemResetWarning,0831.5,5.00,000.00,028.8,027.3,000.0,037.3,030.3,10.6,0000.0,0009.90,0003.65,0002.89
2023-09-24 08:38:00,SystemResetWarning,0831.6,5.01,000.00,028.8,027.3,000.0,037.3,030.3,10.4,0000.0,0009.93,0003.69,0002.90
2023-09-24 08:39:00,SystemResetWarning,0831.5,4.99,000.00,028.8,027.3,000.0,037.3,030.3,10.4,0000.0,0010.50,0003.69,0002.92
2023-09-24 08:40:00,SystemResetWarning,0831.6,4.98,000.00,028.8,027.3,000.0,037.3,030.3,10.3,0000.0,0010.43,0003.67,0002.91
2023-09-24 08:41:00,SystemResetWarning,0831.6,5.01,000.00,028.8,027.3,000.0,037.3,030.3,10.3,0000.0,0009.65,0003.66,0002.92
2023-09-24 08:42:00,SystemResetWarning,0831.6,5.01,000.00,028.8,027.3,000.0,037.3,030.3,10.4,0000.0,0009.94,0003.68,0002.94
2023-09-24 08:43:00,SystemResetWarning,0831.6,5.01,000.00,028.8,027.3,000.0,037.3,030.3,10.4,0000.0,0009.92,0003.65,0002.95
2023-09-24 08:44:00,SystemResetWarning,0831.6,5.00,000.00,028.8,027.3,000.0,037.3,030.3,10.4,0000.0,0009.50,0003.65,0002.96
2023-09-24 08:45:00,SystemResetWarning,0831.6,4.99,000.00,028.8,027.3,000.0,037.2,030.3,10.4,0000.0,0009.35,0003.71,0002.97
2023-09-24 08:46:00,SystemResetWarning,0831.6,5.01,000.00,028.8,027.3,000.0,037.2,030.3,10.5,0000.0,0009.20,0003.72,0002.99
2023-09-24 08:47:00,SystemResetWarning,0831.6,4.99,000.00,028.8,027.3,000.0,037.2,030.3,10.5,0000.0,0009.26,0003.74,0003.01
2023-09-24 08:48:00,SystemResetWarning,0831.6,4.99,000.00,028.8,027.3,000.0,037.2,030.3,10.6,0000.0,0010.09,0003.73,0003.03
2023-09-24 08:49:00,SystemResetWarning,0831.6,5.00,000.00,028.8,027.3,000.0,037.2,030.3,10.3,0000.0,0010.57,0003.67,0003.04
2023-09-24 08:50:00,SystemResetWarning,0831.6,5.00,000.00,028.8,027.3,000.0,037.2,030.3,10.3,0000.0,0010.04,0003.66,0003.05
2023-09-24 08:51:00,SystemResetWarning,0831.6,5.01,000.00,028.8,027.3,000.0,037.2,030.2,10.4,0000.0,0010.50,0003.70,0003.07
2023-09-24 08:52:00,SystemResetWarning,0831.6,5.00,000.00,028.8,027.3,000.0,037.2,030.2,10.4,0000.0,0011.59,0003.74,0003.09
2023-09-24 08:53:00,SystemResetWarning,0831.5,5.01,000.00,028.8,027.3,000.0,037.2,030.2,10.4,0000.0,0011.80,0003.71,0003.09
2023-09-24 08:54:00,SystemResetWarning,0831.5,5.01,000.00,028.8,027.3,000.0,037.2,030.3,10.5,0000.0,0011.49,0003.69,0003.10
2023-09-24 08:55:00,SystemResetWarning,0831.5,5.00,000.00,028.8,027.2,000.0,037.2,030.2,10.5,0000.0,0012.11,0003.69,0003.11
2023-09-24 08:56:00,SystemResetWarning,0831.6,5.00,000.00,028.8,027.2,000.0,037.2,030.2,10.6,0000.0,0012.18,0003.63,0003.11
2023-09-24 08:57:00,SystemResetWarning,0831.6,4.99,000.00,028.8,027.2,000.0,037.2,030.2,10.6,0000.0,0012.16,0003.61,0003.11
2023-09-24 08:58:00,SystemResetWarning,0831.5,5.00,000.00,028.8,027.2,000.0,037.2,030.2,10.7,0000.0,0012.24,0003.63,0003.12
2023-09-24 08:59:00,SystemResetWarning,0831.5,5.00,000.00,028.8,027.2,000.0,037.2,030.2,10.7,0000.0,0011.52,0003.65,0003.13
